Weather in Berwick-upon-Tweed

United Kingdom     55°46′30″N   2°00′08″W
temp.,
°C
wind,
m/s
gust,
m/s
humid.,
%
clouds,
%
prec.,
mm/h
press.,
hPa
HPBL,
m
14 june, mon
mon1401:00+16sw51281100 0.0 1017470
04:00+15sw61286100 0.0 1015551
07:00+12w71488100 0.8 1016780
10:00+14w81166100 0.0 1017996
13:00+15w81160100 0.0 10181130
16:00+15w91262100 0.0 10181084
19:00+14w7126895 0.0 1019914
22:00+11w7127282 0.0 1020577
15 june, tue
tue1501:00+8wsw4889100 0.0 1020210
04:00+7wsw479084 0.0 1021138
07:00+9wsw237821 0.0 1022178
10:00+12se3466100 0.0 1021705
13:00+15sse5659100 0.0 1019977
16:00+17s5761100 0.0 1016951
19:00+17ssw586925 0.0 1014726
22:00+13ssw597454 0.0 1013160
16 june, wed
wed1601:00+13ssw6136584 0.0 1011449
04:00+14sw6137788 0.0 1009434
07:00+15sw51183100 0.0 1009623
10:00+15sw61085100 0.1 1010544
13:00+16sw7106562 0.1 1010641
16:00+17sw686833 0.0 1010805
19:00+16sw58695 0.0 1011593
22:00+12wsw477686 0.0 1012104
17 june, thu
thu1701:00+13sw357099 0.0 1013112
04:00+12wsw2377100 0.1 101358
07:00+12sw1184100 0.6 101422
10:00+13nnw1181100 0.0 1014114
13:00+15ene2274100 0.0 1014552
16:00+12ese2389100 0.1 1015112
19:00+13sse2283100 0.1 101583
22:00+11ne3488100 0.0 101670
18 june, fri
fri1801:00+12n5118168 0.0 1018455
04:00+10nne8128247 0.0 1019588
07:00+10nne81077100 0.0 1020639
10:00+11nne787632 0.0 1021783
13:00+12nne777355 0.0 1021846
16:00+12ne557291 0.0 1021674
19:00+11ne447699 0.0 1020585
22:00+10ne3590100 0.0 1020251